Weather History for Tampa Macdill AFB, FL

Change the Weather History Date:

Tuesday, December 18, 2012

  Actual Average Record
Temperature  
Mean Temperature 68 °F -  
Max Temperature 81 °F 69 °F 81 °F (2012)
Min Temperature 51 °F 51 °F 35 °F (2000)
Cooling Degree Days 3    
Growing Degree Days 18 (Base 50)    
Moisture  
Dew Point 67 °F    
Average Humidity 95    
Maximum Humidity 100    
Minimum Humidity 66    
Precipitation  
Precipitation 0.01 in - - ()
Sea Level Pressure  
Sea Level Pressure 29.94 in    
Wind  
Wind Speed 5 mph (WNW)    
Max Wind Speed 10 mph    
Max Gust Speed -    
Visibility 5 miles    
Events Fog    
Averages and records for this station are not official NWS values.
T = Trace of Precipitation, MM = Missing Value Source: NWS Daily Summary

Daily Weather History Graph

Daily Weather History Graph

Search for Another Location

Airport:

Trip Planner

Search our weather history database for the weather conditions in past years. The results will help you decide how hot, cold, wet, or windy it might be!

Date:

Astronomy

Dec. 18, 2012 Rise Set
Actual Time 7:15 AM EST 5:38 PM EST
Civil Twilight 6:49 AM EST 6:04 PM EST
Nautical Twilight 6:20 AM EST 6:33 PM EST
Astronomical Twilight 5:51 AM EST 7:02 PM EST
Moon 11:21 AM EST (12/18) 11:33 PM EST (12/18)
Length of Visible Light 11h 14m
Length of Day
10h 22m
Waxing Crescent, 34% of the Moon is Illuminated
Dec 18
Waxing Crescent
Dec 20
First Quarter
Dec 28
Full
Jan 4
Last Quarter
Jan 11
New

Hourly Weather History & Observations

Time (EST) Temp. Heat Index Dew Point Humidity Pressure Visibility Wind Dir Wind Speed Gust Speed Precip Events Conditions
12:55 AM 68.9 °F - 68.9 °F 100% 29.91 in 10.0 mi West 10.4 mph - N/A   Clear
1:55 AM 68.5 °F - 68.5 °F 100% 29.91 in 10.0 mi WNW 4.6 mph - N/A   Clear
2:16 AM 68.0 °F - 68.0 °F 100% 29.91 in 7.0 mi West 4.6 mph - N/A   Clear
2:21 AM 68.0 °F - 68.0 °F 100% 29.91 in 5.0 mi West 4.6 mph - N/A   Clear
2:26 AM 68.0 °F - 68.0 °F 100% 29.92 in 3.0 mi WNW 4.6 mph - N/A   Clear
2:30 AM 68.0 °F - 68.0 °F 100% 29.91 in 2.5 mi West 4.6 mph - N/A   Clear
2:32 AM 68.0 °F - 68.0 °F 100% 29.91 in 1.5 mi West 4.6 mph - N/A   Clear
2:34 AM 68.0 °F - 68.0 °F 100% 29.91 in 1.2 mi West 4.6 mph - N/A   Clear
2:38 AM 68.0 °F - 68.0 °F 100% 29.91 in 1.5 mi West 4.6 mph - N/A   Clear
2:42 AM 68.0 °F - 68.0 °F 100% 29.91 in 2.5 mi West 3.5 mph - N/A   Clear
2:43 AM 68.0 °F - 68.0 °F 100% 29.91 in 3.0 mi West 3.5 mph - N/A   Clear
2:55 AM 67.8 °F - 67.8 °F 100% 29.91 in 3.0 mi West 3.5 mph - N/A   Clear
2:57 AM 68.0 °F - 68.0 °F 100% 29.91 in 2.5 mi West 3.5 mph - N/A   Clear
2:59 AM 68.0 °F - 68.0 °F 100% 29.91 in 1.5 mi West 3.5 mph - N/A   Clear
3:00 AM 68.0 °F - 68.0 °F 100% 29.91 in 1.2 mi West 3.5 mph - N/A   Clear
3:02 AM 68.0 °F - 68.0 °F 100% 29.91 in 1.0 mi West 3.5 mph - N/A   Clear
3:03 AM 68.0 °F - 68.0 °F 100% 29.91 in 1.0 mi Calm Calm - N/A   Clear
3:04 AM 68.0 °F - 68.0 °F 100% 29.91 in 0.8 mi Calm Calm - N/A   Clear
3:06 AM 68.0 °F - 68.0 °F 100% 29.91 in 0.5 mi Calm Calm - N/A Fog Fog
3:07 AM 68.0 °F - 68.0 °F 100% 29.91 in 0.5 mi Calm Calm - N/A Fog Fog
3:55 AM 68.0 °F - 68.0 °F 100% 29.92 in 0.5 mi Calm Calm - N/A Fog Fog
4:02 AM 68.0 °F - 68.0 °F 100% 29.92 in 0.2 mi Calm Calm - N/A Fog Fog
4:26 AM 68.0 °F - 68.0 °F 100% 29.92 in 0.5 mi West 4.6 mph - N/A Fog Fog
4:36 AM 68.0 °F - 68.0 °F 100% 29.92 in 0.5 mi WNW 4.6 mph - N/A Fog Fog
4:38 AM 68.0 °F - 68.0 °F 100% 29.92 in 0.5 mi WNW 3.5 mph - N/A Fog Fog
4:39 AM 68.0 °F - 68.0 °F 100% 29.93 in 0.8 mi WNW 3.5 mph - N/A   Partly Cloudy
4:41 AM 68.0 °F - 68.0 °F 100% 29.93 in 0.8 mi WNW 3.5 mph - N/A   Partly Cloudy
4:42 AM 68.0 °F - 68.0 °F 100% 29.93 in 1.0 mi WNW 3.5 mph - N/A   Partly Cloudy
4:43 AM 68.0 °F - 68.0 °F 100% 29.93 in 1.2 mi WNW 4.6 mph - N/A   Partly Cloudy
4:44 AM 68.0 °F - 68.0 °F 100% 29.93 in 1.8 mi WNW 4.6 mph - N/A   Partly Cloudy
4:45 AM 68.0 °F - 68.0 °F 100% 29.93 in 2.0 mi WNW 4.6 mph - N/A   Partly Cloudy
4:46 AM 68.0 °F - 68.0 °F 100% 29.93 in 2.5 mi WNW 4.6 mph - N/A   Partly Cloudy
4:47 AM 68.0 °F - 68.0 °F 100% 29.93 in 3.0 mi WNW 4.6 mph - N/A   Partly Cloudy
4:52 AM 69.8 °F - 69.8 °F 100% 29.92 in 7.0 mi WNW 5.8 mph - N/A   Partly Cloudy
4:55 AM 68.9 °F - 68.9 °F 100% 29.93 in 9.0 mi WNW 5.8 mph - N/A   Partly Cloudy
5:55 AM 69.4 °F - 69.4 °F 100% 29.94 in 10.0 mi WNW 6.9 mph - N/A   Partly Cloudy
6:07 AM 69.8 °F - 69.8 °F 100% 29.94 in 9.0 mi WNW 5.8 mph - N/A   Partly Cloudy
6:22 AM 69.8 °F - 69.8 °F 100% 29.94 in 9.0 mi WNW 6.9 mph - N/A   Mostly Cloudy
6:45 AM 69.8 °F - 69.8 °F 100% 29.95 in 8.0 mi WNW 6.9 mph - N/A   Mostly Cloudy
6:51 AM 69.8 °F - 69.8 °F 100% 29.95 in 7.0 mi WNW 5.8 mph - N/A   Scattered Clouds
6:55 AM 69.3 °F - 69.3 °F 100% 29.95 in 8.0 mi WNW 6.9 mph - N/A   Scattered Clouds
7:07 AM 69.8 °F - 69.8 °F 100% 29.95 in 7.0 mi WNW 6.9 mph - N/A   Partly Cloudy
7:55 AM 69.3 °F - 69.3 °F 100% 29.96 in 6.0 mi WNW 6.9 mph - N/A   Clear
8:55 AM 72.5 °F - 72.5 °F 100% 29.98 in 10.0 mi West 9.2 mph - N/A   Clear
9:55 AM 74.1 °F - 74.1 °F 100% 29.99 in 10.0 mi NW 9.2 mph - 0.01 in   Scattered Clouds
10:55 AM 79.0 °F - 72.7 °F 81% 29.99 in 10.0 mi North 6.9 mph - N/A   Clear
11:55 AM 81.9 °F 85.4 °F 69.4 °F 66% 29.99 in 10.0 mi NNE 10.4 mph - N/A   Scattered Clouds
12:55 PM 75.7 °F - 70.0 °F 82% 29.98 in 10.0 mi NNE 9.2 mph - N/A   Scattered Clouds
1:55 PM 77.9 °F - 68.5 °F 73% 29.97 in 10.0 mi North 10.4 mph - N/A   Clear
2:55 PM 75.9 °F - 66.7 °F 73% 29.97 in 10.0 mi NNW 9.2 mph - N/A   Clear
3:55 PM 73.6 °F - 63.7 °F 71% 29.97 in 10.0 mi NNW 8.1 mph - N/A   Clear
4:55 PM 72.3 °F - 63.0 °F 72% 29.99 in 10.0 mi NNW 6.9 mph - N/A   Clear
5:55 PM 67.6 °F - 61.7 °F 81% 30.00 in 10.0 mi NNW 3.5 mph - N/A   Clear
6:55 PM 64.4 °F - 59.9 °F 85% 30.01 in 10.0 mi North 5.8 mph - N/A   Clear
7:55 PM 62.2 °F - 57.0 °F 83% 30.03 in 10.0 mi NNE 3.5 mph - N/A   Clear
8:55 PM 56.3 °F - 53.8 °F 91% 30.03 in 10.0 mi North 3.5 mph - N/A   Clear
9:55 PM 55.6 °F - 51.4 °F 86% 30.05 in 10.0 mi North 3.5 mph - N/A   Clear
10:55 PM 55.9 °F - 52.5 °F 88% 30.05 in 10.0 mi NNE 3.5 mph - N/A   Clear
11:55 PM 51.3 °F - 48.7 °F 91% 30.05 in 10.0 mi NNE 3.5 mph - N/A   Clear